Preview of NWS' New Version of Forecast
This preview is not operational and should not be used for support decisions.

Regional Weather Roundup (RWR)

Issued by National Weather Service (NWS)

                            
000
ASUS42 KTBW 221218
RWRFL 
FLORIDA REGIONAL WEATHER ROUNDUP
NATIONAL WEATHER SERVICE TAMPA BAY RUSKIN FL
800 AM EDT SUN SEP 22 2019

NOTE: "FAIR" INDICATES FEW OR NO CLOUDS BELOW 12,000 FEET WITH NO
SIGNIFICANT WEATHER AND/OR OBSTRUCTIONS TO VISIBILITY.

FLZ001>010-012>015-112-114-115-221300-
PANHANDLE FLORIDA
  
CITY           SKY/WX    TMP DP  RH WIND       PRES   REMARKS
PENSACOLA      FAIR      74  72  93 NE6       30.13S                  
PENSACOLA NAS  FAIR      77  71  82 NE8       30.12S                  
MILTON NAS     FAIR      62  61  96 NE3       30.15S                  
CRESTVIEW      FAIR      61  59  93 CALM      30.17S                  
DUKE FIELD     FAIR      65  63  93 CALM      30.15S                  
VALPARAISO     FAIR      71  65  81 NE5       30.14S                  
MARY ESTHER    CLEAR     74  69  82 NE5       30.13R                  
PANAMA CITY    FAIR      67  62  84 NE6       30.14S                  
TYNDALL AFB    MOCLDY    70  65  83 E7        30.14R                  
APALACHICOLA   MOCLDY    72  66  81 NE6       30.13R                  

STATION/POSITION SKY/WX   TEMP    WIND        PRES    WAVE   SWELL
                          AIR SEA DIR/SP/G            HT/PER HT/PER
                          (F)     (DEG/KT/KT) (MB)    (FT/S) (FT/S)
30.1N   87.6W              82 84  100/ 17/ 21 1019.8R   5/ 7
29.2N   88.2W              83     100/ 12/ 16 1019.3
28.8N   86.0W                 84  100/ 14/ 17 1019.2R   6/ 7   3/12
PANAMA CITY BEAC           72 84   60/  5/  6 1021.2R
TOWER C                    78     110/ 16/ 17 1020.4R
28.5N   84.5W              81      80/ 14/ 17 1019.8R   5/ 6   2/12

$$
FLZ011-016>038-118-127-128-134-139-239-221300-
NORTH FLORIDA
  
CITY           SKY/WX    TMP DP  RH WIND       PRES   REMARKS
MARIANNA       FAIR      63  61  93 CALM      30.16S                  
TALLAHASSEE    FAIR      69  65  86 N3        30.16S                  
PERRY          FAIR      64  64  97 NE3       30.16S                  
LIVE OAK       PTCLDY    64  64 100 CALM      30.16S                  
CROSS CITY     MOCLDY    68  65  92 NE5       30.15S                  
LAKE CITY      CLOUDY    66  63  88 NE6       30.16S                  
GAINESVILLE    FAIR      68  64  87 CALM      30.17S                  
WILLISTON      FAIR      66  65  97 N5        30.14R                  
PALATKA        FAIR      64  63  94 CALM      30.15R                  
MAYPORT NAS    FAIR      79  63  57 E14       30.15R                  
JACKSONVILLE   FAIR      68  66  93 CALM      30.15S                  
JAX NAS        FAIR      76  65  68 NE7       30.16R                  
JAX CECIL      MOCLDY    66  66 100 N5        30.15S                  
FERNANDINA BEA FAIR      77  65  65 E8        30.16S                  
ST AUGUSTINE   FAIR      79  32  18 E14       30.15R                  
PALM COAST     MOCLDY    77  66  69 E13       30.13S                  

STATION/POSITION SKY/WX   TEMP    WIND        PRES    WAVE   SWELL
                          AIR SEA DIR/SP/G            HT/PER HT/PER
                          (F)     (DEG/KT/KT) (MB)    (FT/S) (FT/S)
SHELL POINT      NOT AVBL
KEATON BEACH               68      50/  6/  8 1021.1R
CEDAR KEY                  72      50/  8/  9 1020.4R
FERNANDINA                 82 80   70/  1/  6 1022.1R
30.7N   81.3W                 81                N/A     4/13   2/13
MAYPORT                       80   70/  9/ 11 1021.5R
31.4N   80.9W              80 81   80/ 16/ 17 1021.5F   4/ 8   3/ 8
ST AUGUSTINE               80 80   80/ 14/ 15 1020.8R

$$
FLZ040-043>046-052-053-057-058-063-144-221300-
INTERIOR CENTRAL FLORIDA
  
CITY           SKY/WX    TMP DP  RH WIND       PRES   REMARKS
OCALA          FAIR      64  64 100 N3        30.14R                  
LEESBURG       FAIR      73  64  73 NE7       30.13R                  
SANFORD        MOCLDY    73  64  73 NE9       30.11S                  
ORLANDO EXEC   MOCLDY    74  66  76 N7        30.11R                  
ORLANDO INTL   FAIR      72  66  81 NE8       30.11R                  
KISSIMMEE      FAIR      74  67  78 NE6       30.12R                  
WINTER HAVEN   FAIR      74  67  78 NE8       30.11R                  
LAKELAND       CLEAR     72  66  83 NE6       30.10R                  
BARTOW         CLEAR     73  68  83 NE7G13    30.09R                  
SEBRING        FAIR      70  66  88 N7        30.08S                  
OKEECHOBEE       N/A     70  66  88 N3        30.06R                  

$$
FLZ041-047-054-059-064-141-147-221300-
EAST CENTRAL FLORIDA
  
CITY           SKY/WX    TMP DP  RH WIND       PRES   REMARKS
ORMOND BEACH   PTCLDY    77  63  61 E7        30.13R                  
DAYTONA BEACH  FAIR      77  63  61 E9        30.12R                  
DELAND         FAIR      66  63  88 CALM      30.12S                  
NEW SMYRNA BEA PTCLDY    77  63  61 E10       30.13R                  
JFK SPACE CTR  CLOUDY    78  66  66 E9        30.10R                  
TITUSVILLE     PTCLDY    81  66  61 E7        30.11R                  
CAPE CANAVERAL FAIR      78  67  67 E10G21    30.09R                  
PATRICK AFB    FAIR      79  66  64 E16G23    30.09R                  
MELBOURNE      FAIR      79  64  60 E17       30.08R                  
VERO BEACH     PTSUNNY   80  65  59 E13       30.08R                  
FT PIERCE      PTSUNNY   79  65  62 E12G20    30.06R                  
STUART         MOSUNNY   81  66  61 E20G29    30.06R                  

STATION/POSITION SKY/WX   TEMP    WIND        PRES    WAVE   SWELL
                          AIR SEA DIR/SP/G            HT/PER HT/PER
                          (F)     (DEG/KT/KT) (MB)    (FT/S) (FT/S)
28.5N   80.2W              80 82   70/ 16/ 19 1019.5R   7/13   5/13
28.9N   78.5W              79      50/ 17/ 23 1020.2R   7/13   5/13
TRIDENT PIER               78 81   60/ 12/ 17 1020.3S
28.4N   80.5W                 81                N/A     4/ 6   2/14
27.5N   80.2W                 81                N/A     7/14   5/14

$$
FLZ050-056-061-142-242-148-248-149-249-151-251-155-255-
160-260-221300-
WEST CENTRAL FLORIDA
  
CITY           SKY/WX    TMP DP  RH WIND       PRES   REMARKS
CRYSTAL RIVER  FAIR      66  64  94 CALM      30.13R                  
INVERNESS      FAIR      68  68 100 N3        30.13S FOG              
BROOKSVILLE    FAIR      68  64  87 NE5       30.12R                  
CLEARWATER AIR FAIR      70  66  88 NE5       30.10R                  
ST PETE CLEARW MOCLDY    75  68  78 NE8       30.09R                  
TAMPA INTL     FAIR      72  67  84 N6        30.10R                  
TAMPA EXEC     FAIR      70  68  94 CALM      30.11R                  
PLANT CITY     FAIR      70  68  94 NE3       30.12R                  
MACDILL AFB    FAIR      72  67  84 E8        30.09R                  
PETER O KNIGHT CLOUDY    72  70  94 NE8       30.10R                  
ST PETERSBURG  FAIR      77  70  79 NE15      30.08R                  
SARASOTA       FAIR      74  69  85 NE6       30.06R                  
VENICE         FAIR      73  70  88 NE10      30.06S                  

STATION/POSITION SKY/WX   TEMP    WIND        PRES    WAVE   SWELL
                          AIR SEA DIR/SP/G            HT/PER HT/PER
                          (F)     (DEG/KT/KT) (MB)    (FT/S) (FT/S)
27.3N   84.2W                 84                N/A     7/ 6
CLEARWATER BEACH           73 83   40/  7/ 12 1019.3R
MIDDLE TAMPA BAY           75      80/ 16/ 19 1018.6
VENICE                     72 84   30/  9/ 12 1017.8R

$$
FLZ066-069-070-075>078-162-262-165-265-221300-
SOUTHWEST FLORIDA AND KEYS
  
CITY           SKY/WX    TMP DP  RH WIND       PRES   REMARKS
PUNTA GORDA    FAIR      71  69  93 NE8       30.07S                  
FT MYERS       FAIR      75  68  78 NE8       30.03S                  
SOUTHWEST INTL FAIR      73  69  87 NE8       30.04R                  
NAPLES         FAIR      76  72  87 NE10      30.02R                  
MARCO ISLAND   FAIR      74  70  87 NE9       30.03R                  
IMMOKALEE      FAIR      73  70  88 N6        30.02R                  
MARATHON       FAIR      80  74  81 NE22G31   29.95R                  
KEY WEST NAS   CLOUDY    80  74  81 NE17G28   29.96R                  
KEY WEST INTL  FAIR      79  74  84 NE10G20   29.96R                  

STATION/POSITION SKY/WX   TEMP    WIND        PRES    WAVE   SWELL
                          AIR SEA DIR/SP/G            HT/PER HT/PER
                          (F)     (DEG/KT/KT) (MB)    (FT/S) (FT/S)
NAPLES                     75 82   40/  6/ 10 1016.3R
26.0N   85.6W              83 85   80/ 17/ 23 1016.8
DRY TORTUGAS               82      70/ 27/ 32 1014.7R
SOMBRERO KEY               81      50/ 23/ 29 1014.1R
LONG KEY                   81                 1013.6

$$
FLZ067-068-071>074-168-172>174-221300-
SOUTHEAST FLORIDA 
  
CITY           SKY/WX    TMP DP  RH WIND       PRES   REMARKS
W PALM BEACH   PTSUNNY   80  68  66 NE17G25   30.04R                  
BOCA RATON     MOSUNNY   81  70  69 E23G29    30.02R                  
FT LAUDER-EXEC FAIR      81  68  64 NE15G23   30.01R                  
FT LAUDERDALE  PTSUNNY   80  69  69 E13       30.00R                  
POMPANO BEACH  PTSUNNY   82  69  64 E17       30.01R                  
PEMBROKE PINES FAIR      81  67  62 NE15G24   30.02R                  
OPA LOCKA      FAIR      80  68  66 NE15G24   30.01R                  
MIAMI          FAIR      80  68  66 NE12G21   30.00R                  
WEST KENDALL   FAIR      79  71  76 NE12      29.98S                  
HOMESTEAD      CLOUDY    80  70  70 NE17G24   29.98R                  

STATION/POSITION SKY/WX   TEMP    WIND        PRES    WAVE   SWELL
                          AIR SEA DIR/SP/G            HT/PER HT/PER
                          (F)     (DEG/KT/KT) (MB)    (FT/S) (FT/S)
VIRGINIA KEY               81 82   50/ 18/ 22 1015.2R
LAKE WORTH                 81 81   60/ 21/ 23 1017.8R
FOWEY ROCKS                81 83   60/ 29/ 32 1015.4R
SETTLEMENT POINT           79      60/ 18/ 21 1016.8R

$$